Flag Weather past 2 weeks in Biberach an der Riss, Baden-Württemberg, Germany

Now
37 °F

Drizzle. Fog.


Feels Like: 33 °F
Forecast: 36 / 44 °F
Wind: 6 mph from East

Location: Laupheim Airport

Current Time: Nov 26, 2014 at 6:45:14 AM

Latest Report: Nov 26, 2014 at 5:20 AM


Visibility: 2 mi

Pressure: 30.04 "Hg

Humidity: 100%

Dew point: 37 °F

Location of Biberach an der RissLocation

Historic Weather in Biberach an der Riss — Graph

°F

Biberach an der Riss temperature yesterday

Maximum temperature yesterday: 45 °F (at 12:20 AM)
Minimum temperature yesterday: 39 °F (at 9:20 PM)
Average temperature yesterday: 42 °F

Past Weeks' High & Low Weather Summary

 TemperatureHumidityPressure
High55 °F (Nov 24, 1:20 PM)100% (Nov 11, 5:20 AM)30.27 "Hg (Nov 11, 5:20 AM)
Low32 °F (Nov 20, 5:20 AM)71% (Nov 16, 3:20 PM)29.50 "Hg (Nov 15, 11:20 PM)
Average42 °F96%29.93 "Hg
* Reported Nov 11 5:20 AM — Nov 26 5:20 AM, Biberach an der Riss, Weather by CustomWeather, © 2014

Note: Actual official high and low records may vary slightly from our data, if they occured in-between our weather recording intervals... More about our weather records

Advertising

Biberach an der Riss weather history for previous 24 hours

 ConditionsComfort  
Time TempWeatherWind HumidityBarometerVisibility
5:20 AM
Nov 26
37 °FDrizzle. Fog.6 mph100%30.04 "Hg2 mi
4:20 AM37 °FFog.8 mph100%30.04 "Hg2 mi
3:20 AM37 °FFog.8 mph100%30.04 "Hg2 mi
2:20 AM37 °FFog.7 mph100%30.07 "Hg2 mi
1:20 AM37 °FDrizzle. Fog.7 mph100%30.07 "Hg2 mi
12:20 AM37 °FDrizzle. Fog.9 mph100%30.09 "Hg3 mi
11:20 PM
Nov 25
39 °FLow clouds.9 mph93%30.09 "Hg4 mi
10:20 PM39 °FLow clouds.12 mph93%30.09 "Hg4 mi
9:20 PM39 °FLow clouds.12 mph93%30.09 "Hg4 mi
8:20 PM41 °FLow clouds.10 mph93%30.09 "Hg4 mi
7:20 PM43 °FLow clouds.9 mph87%30.09 "Hg4 mi
6:20 PM43 °FLow clouds.13 mph87%30.09 "Hg4 mi
5:20 PM43 °FLow clouds.9 mph93%30.12 "Hg4 mi
4:20 PM43 °FLow clouds.14 mph93%30.12 "Hg4 mi
3:20 PM43 °FLow clouds.12 mph93%30.12 "Hg4 mi
2:20 PM43 °FLow clouds.10 mph93%30.12 "Hg4 mi
1:20 PM43 °FFog.12 mph93%30.15 "Hg3 mi
12:20 PM43 °FFog.12 mph93%30.15 "Hg2 mi
11:20 AM43 °FFog.12 mph93%30.18 "Hg2 mi
10:20 AM43 °FFog.12 mph93%30.18 "Hg2 mi
9:20 AM43 °FFog.12 mph100%30.18 "Hg2 mi
8:20 AM43 °FFog.10 mph93%30.18 "Hg2 mi
7:20 AM43 °FFog.10 mph100%30.18 "Hg2 mi
6:20 AM43 °FFog.9 mph100%30.21 "Hg2 mi
Weather by CustomWeather, © 2014

See weather overviewHow to use our weather pages